This is the latest recevied weather packets stored in our database for station/object PU2XNA. If no packets are shown the sender has not sent any weather packets the latest 10 day(s).
| Time | Temp. | Humidity | Pressure | Rain* | Wind** | Luminosity | Snow |
|---|---|---|---|---|---|---|---|
| 1788557403 | 30° C | 44% | 1008.4 hPa | - | - | - | - |
| 1788556504 | 30.56° C | 42% | 1008.2 hPa | - | - | - | - |
| 1788555603 | 30.56° C | 40% | 1008.3 hPa | - | - | - | - |
| 1788554703 | 31.11° C | 40% | 1008 hPa | - | - | - | - |
| 1788553803 | 31.11° C | 40% | 1007.9 hPa | - | - | - | - |
| 1788552903 | 32.22° C | 40% | 1007.9 hPa | - | - | - | - |
| 1788552003 | 32.22° C | 38% | 1007.8 hPa | - | - | - | - |
| 1788551103 | 32.22° C | 37% | 1007.8 hPa | - | - | - | - |
| 1788550202 | 32.22° C | 37% | 1007.8 hPa | - | - | - | - |
| 1788549303 | 32.78° C | 35% | 1007.8 hPa | - | - | - | - |
| 1788548402 | 33.33° C | 33% | 1007.9 hPa | - | - | - | - |
| 1788547503 | 33.89° C | 32% | 1008 hPa | - | - | - | - |
| 1788546602 | 34.44° C | 31% | 1008.1 hPa | - | - | - | - |
| 1788545703 | 33.33° C | 32% | 1008.2 hPa | - | - | - | - |
| 1788544803 | 33.89° C | 31% | 1008.3 hPa | - | - | - | - |
| 1788543903 | 33.33° C | 31% | 1008.6 hPa | - | - | - | - |
| 1788543003 | 33.33° C | 30% | 1008.8 hPa | - | - | - | - |
| 1788542104 | 33.89° C | 30% | 1009.1 hPa | - | - | - | - |
| 1788541203 | 34.44° C | 29% | 1009.4 hPa | - | - | - | - |
| 1788540303 | 33.89° C | 30% | 1009.6 hPa | - | - | - | - |
| 1788539403 | 33.33° C | 30% | 1009.9 hPa | - | - | - | - |
| 1788538518 | 33.33° C | 33% | 1010.1 hPa | - | - | - | - |
| 1788537603 | 33.89° C | 32% | 1010.5 hPa | - | - | - | - |
| 1788536702 | 32.78° C | 35% | 1010.7 hPa | - | - | - | - |
| 1788535803 | 33.33° C | 36% | 1011.1 hPa | - | - | - | - |
* Rain since midnight (hover to see other rain measurements)
** Current wind speed in m/s (hover to see current wind gust speed)